Location: Unspecified
(52.1971°N, 0.0000°E)
Time: 08:14:54
(UTC+00:00)

YUBILEINY - Pass Details

Date: 15 December 2019
Orbit: 1478 x 1509 km, 82.5° (Epoch: 20 January)

Event Time Altitude Azimuth Distance (km) Brightness Sun altitude
Rises 05:21:20 0° 346° (NNW) 4,613 ? -23.2°
Reaches altitude 10° 05:25:18 10° 2° (N) 3,630 ? -22.6°
Maximum altitude 05:31:31 21° 49° (NE) 2,862 ? -21.7°
Drops below altitude 10° 05:37:43 10° 95° (E) 3,624 ? -20.7°
Sets 05:41:37 0° 111° (ESE) 4,603 ? -20.2°
